Cloud_Cover
100 63 57 53 68 3 0 25 37 94 45 45 40 7 4 6 3 4 5 5 0 1 0 0 0 0 0 0 0 0 0 0 0 4 100 100 17 95 85 3 4 5 34 44 15
1 0 0 2 10 28 29 97 31 81 100 100 73 2 7 2 22 0 2 4 3 0 5 0 0 0 0 0 0 0 0 0 0 2 32 100 80 100 100 5 2 38 0 7 1
0 6 49 90 10 76 24 0 0 0 82 94 94 20 0 0 2 0 0 2 5 4 2 5 0 0 0 0 0 0 0 0 0 0 4 0 27 100 76 47 93 12 0 0 0
17 98 100 100 100 19 0 0 0 0 19 94 0 0 0 2 2 0 2 0 0 4 5 5 5 0 0 0 0 0 0 0 0 0 0 0 1 100 45 85 100 52 2 0 0
100 90 100 100 100 19 4 0 2 0 6 0 0 0 1 4 1 26 0 9 67 1 5 5 5 5 0 6 7 0 0 0 0 0 0 0 0 3 28 100 13 2 4 4 0
100 100 97 100 88 100 4 0 24 3 46 0 2 10 17 8 0 0 0 2 4 13 5 5 5 54 5 5 6 43 0 0 0 0 0 0 0 0 1 45 2 5 81 88 2
100 99 40 99 32 1 0 4 4 97 7 13 72 97 99 2 0 5 0 0 0 20 24 26 30 5 61 5 21 81 2 0 0 0 0 0 0 0 0 0 0 100 98 67 64
98 92 100 95 33 0 30 0 0 27 96 84 74 97 100 4 1 0 1 5 3 13 25 100 54 29 39 17 5 66 86 0 0 0 0 0 0 0 0 0 0 52 100 14 74
100 73 92 74 25 0 27 0 0 27 8 52 97 99 42 4 3 0 0 2 6 77 100 93 27 35 100 77 5 27 61 20 0 0 0 0 0 0 0 0 0 1 89 100 30
39 99 100 100 98 10 0 0 4 5 43 90 99 89 3 5 5 5 4 5 5 76 82 67 41 64 56 78 6 42 56 93 5 0 0 0 0 0 0 0 0 0 2 66 100
100 100 100 100 97 94 3 14 70 90 100 63 87 5 5 42 4 32 64 97 6 89 91 68 100 5 5 100 100 100 97 100 100 6 0 0 0 0 0 0 0 0 0 0 27
60 100 100 85 34 3 14 100 84 84 98 30 6 5 67 66 96 90 24 95 89 11 91 96 72 26 64 96 100 100 98 100 100 86 5 1 0 0 0 0 0 0 0 0 0
32 97 10 4 0 33 100 100 42 100 100 100 15 33 11 57 91 36 77 60 80 100 100 74 14 38 100 99 100 99 95 100 100 87 5 5 0 0 0 0 0 0 0 0 0
21 46 21 3 21 78 100 41 50 100 86 100 73 92 24 100 90 42 99 48 55 56 99 50 46 52 100 100 84 100 19 100 100 100 34 10 1 0 0 0 0 0 0 0 0
15 34 7 38 47 100 100 66 100 100 100 99 74 38 100 85 100 100 99 98 96 92 100 94 100 100 99 91 82 98 44 96 100 100 100 83 5 0 0 0 0 0 0 0 0
19 16 3 39 100 100 88 100 100 100 100 84 95 99 100 94 100 94 100 70 83 98 40 99 66 100 97 63 83 100 100 100 100 100 100 99 5 5 0 0 0 0 0 0 0
0 0 0 41 94 46 99 100 100 100 100 88 100 100 100 100 70 100 100 98 24 84 8 100 98 40 100 100 68 100 100 100 100 100 100 98 63 54 0 0 0 0 0 0 0
0 31 7 99 93 43 94 100 100 100 100 95 100 100 98 96 100 100 100 98 5 100 100 80 99 100 63 100 89 68 28 19 7 98 100 100 100 19 4 1 0 0 0 0 0
0 0 74 5 90 47 94 99 100 100 100 100 98 100 100 43 100 100 79 95 4 96 100 100 13 100 93 25 77 98 86 84 100 100 100 100 100 99 5 19 5 0 0 0 0
0 10 17 3 60 94 99 94 100 100 100 100 100 100 100 100 96 92 59 91 92 100 100 100 72 100 35 96 100 73 70 100 95 100 100 100 100 100 100 100 61 36 4 0 0
0 94 1 5 19 69 100 100 100 100 100 100 100 100 100 100 99 97 100 100 2 100 100 92 100 100 100 100 67 98 100 100 100 100 100 100 100 100 100 100 100 100 24 6 5
0 3 3 5 55 100 100 100 100 100 100 100 100 100 100 100 100 100 37 98 96 100 48 76 100 100 66 16 24 5 4 74 100 100 100 100 100 100 100 100 100 89 100 40 1
1 4 5 13 53 100 95 100 100 100 100 100 100 100 100 100 100 99 94 15 1 98 29 100 91 100 100 100 100 100 100 100 100 89 100 100 100 100 100 100 100 97 100 100 99
4 0 0 48 99 100 97 100 100 100 100 100 100 100 100 100 99 100 100 100 100 100 76 81 46 92 69 58 63 81 81 100 100 100 100 100 100 100 100 100 100 100 100 86 62
2 0 5 4 30 100 85 100 100 100 100 100 100 100 100 100 98 100 100 100 100 100 100 100 57 80 33 4 38 31 37 100 100 100 100 100 100 100 100 100 100 100 100 100 100
5 20 9 37 99 90 94 99 100 100 100 100 100 100 100 100 100 74 100 100 100 100 100 76 100 96 100 90 100 100 100 100 100 100 100 100 100 100 100 100 100 100 100 100 100
8 11 44 4 57 43 67 100 100 100 96 100 100 100 100 100 100 100 35 70 99 95 99 100 84 19 100 100 100 100 99 100 100 100 100 100 100 100 100 100 100 100 100 100 100